Lid_Strength_Index
11 11 10 12 11 10 9 8 7 7 6 6 6 6 7 6 5 4 3 3 3 3 3 3 4 3 4 5 6 6 7 9 11 13 12 11 11 10 9 9 9 9 10
11 10 11 12 11 10 10 9 8 8 7 7 7 7 7 5 4 4 3 3 3 4 4 4 4 4 4 4 5 6 8 9 11 13 13 13 11 10 10 10 10 9 10
11 10 11 12 10 9 10 10 9 9 8 7 7 7 6 5 4 3 3 3 3 3 3 3 4 4 4 4 5 7 8 9 10 12 14 13 12 10 11 11 11 11 10
11 10 11 11 9 9 10 10 10 9 8 7 6 5 4 4 4 4 4 4 5 4 4 4 4 4 4 5 7 8 9 10 11 12 13 13 12 12 12 13 13 13 12
11 11 12 10 10 10 10 10 11 10 10 9 8 8 8 7 6 6 7 7 8 8 9 8 6 8 9 8 7 9 9 11 11 12 13 12 13 13 13 13 13 13 13
13 12 11 10 10 10 10 10 10 11 10 10 10 10 10 10 10 10 9 9 9 9 10 10 10 11 11 11 10 10 9 10 11 11 11 11 12 12 13 13 13 13 13
13 12 11 11 11 10 11 10 10 11 10 11 11 11 11 11 11 11 11 10 10 10 10 11 11 12 11 11 12 12 13 11 10 10 10 10 12 13 14 16 14 13 13
14 11 12 12 12 12 12 11 11 11 11 11 11 11 12 12 11 11 12 11 12 12 12 11 11 11 12 12 12 14 15 14 13 12 11 12 11 11 11 11 12 13 13
14 12 12 12 13 12 12 11 11 11 11 12 11 11 11 12 12 12 12 13 14 15 14 14 13 12 12 12 13 14 15 15 13 11 11 10 9 9 11 12 13 13 13
13 13 13 13 13 13 13 13 14 13 13 13 13 13 13 12 12 12 12 14 15 16 15 15 14 14 14 13 15 15 16 16 16 16 15 14 14 13 12 13 14 14 14
14 14 13 13 13 13 14 13 13 13 13 13 13 14 13 12 11 11 12 14 15 15 15 15 13 11 11 11 12 14 15 15 14 16 17 17 17 17 17 16 15 14 14
14 14 15 14 13 13 13 14 14 13 13 14 14 15 15 14 12 11 11 12 12 14 14 14 13 11 12 12 13 12 13 16 17 19 19 20 22 23 22 22 22 21 17
14 14 15 15 14 14 13 14 14 14 15 16 15 16 16 16 14 11 11 12 12 14 13 12 12 13 13 13 13 15 19 20 21 20 22 23 24 25 24 23 23 24 23
14 14 15 15 14 14 14 14 13 14 14 17 17 18 18 18 17 15 15 15 14 14 14 16 15 15 16 17 18 18 19 20 20 22 23 23 23 23 22 23 22 22 22
14 15 15 15 15 15 16 15 15 16 15 18 19 17 17 19 17 15 16 16 16 16 18 21 21 19 18 17 16 16 15 16 17 19 21 22 22 22 22 23 23 23 22
14 15 15 16 16 15 15 15 14 14 14 13 15 16 19 15 15 15 15 14 14 15 21 19 17 17 16 16 16 17 17 17 20 21 22 21 20 21 22 21 23 25 24
13 14 15 16 16 17 19 17 18 16 14 14 14 14 14 13 13 13 13 13 13 15 16 15 16 16 17 18 18 18 19 23 25 21 21 22 22 23 22 21 22 22 20
14 15 15 15 16 18 19 20 20 18 18 18 15 14 13 13 13 13 13 14 16 16 15 16 17 17 18 19 21 25 24 23 23 23 23 24 23 23 22 23 22 23 24
14 15 15 15 15 16 17 19 20 20 18 17 17 15 15 13 13 13 14 15 16 17 17 18 18 19 21 23 24 24 25 26 27 26 26 25 25 23 24 25 26 26 28
14 14 15 16 17 17 18 19 19 19 17 16 16 15 14 14 16 17 17 18 19 19 20 21 22 24 25 25 26 27 26 27 27 27 28 27 27 26 28 29 29 30 33
15 16 15 16 17 17 17 18 19 19 17 16 15 15 14 16 18 18 19 20 20 22 22 24 26 27 28 28 27 28 29 30 31 31 30 31 33 31 34 33 34 34 32
15 16 16 16 16 17 17 18 18 18 16 16 16 15 16 18 19 20 20 21 22 23 23 25 27 28 30 30 30 29 30 31 33 32 32 33 34 36 34 33 31 32 32
15 15 16 16 16 17 17 17 17 16 16 16 17 19 19 20 20 21 22 23 23 24 25 26 27 29 31 32 34 33 29 32 33 35 31 34 35 33 34 33 36 32 32
15 15 16 16 16 16 16 16 16 16 17 18 19 19 20 21 21 22 22 23 24 25 25 27 28 30 32 33 34 35 35 38 39 37 34 31 32 34 32 32 33 35 33
15 15 16 16 16 16 16 16 17 18 18 19 20 20 21 22 22 23 23 24 25 25 27 29 29 31 32 32 32 33 30 33 35 35 32 32 32 34 35 35 36 34 34
15 15 15 15 15 15 17 18 18 18 19 20 20 21 22 22 23 23 24 24 25 26 28 28 30 31 31 31 31 30 29 28 32 33 34 31 31 33 33 35 35 34 35